Sparta, WI

4:50 PM CST on January 17, 2018 (GMT -0600)
Sparta-Fort McCoy

Weather History for KCMY - March, 2014

Change the Weather History Date:

Monday, March 17, 2014

  Actual Average Record
Temperature  
Mean Temperature 28 °F -  
Max Temperature 37 °F 43 °F 82 °F (2012)
Min Temperature 18 °F 21 °F 3 °F (1967)
Degree Days  
Heating Degree Days 38    
Moisture  
Dew Point 13 °F    
Average Humidity 58    
Maximum Humidity 69    
Minimum Humidity 41    
Precipitation  
Precipitation 0.00 in - - ()
Sea Level Pressure  
Sea Level Pressure 29.83 in    
Wind  
Wind Speed 7 mph (SSE)    
Max Wind Speed 15 mph    
Max Gust Speed 20 mph    
Visibility 10 miles    
Events      
Averages and records for this station are not official NWS values.
T = Trace of Precipitation, MM = Missing Value Source: NWS Daily Summary

Daily Weather History Graph

Daily Weather History Graph

Search for Another Location

Airport or City:

Trip Planner

Search our weather history database for the weather conditions in past years. The results will help you decide how hot, cold, wet, or windy it might be!

Date:

Astronomy

Mar. 17, 2014 Rise Set
Actual Time 7:11 AM CDT 7:11 PM CDT
Civil Twilight 6:42 AM CDT 7:40 PM CDT
Nautical Twilight 6:09 AM CDT 8:14 PM CDT
Astronomical Twilight 5:35 AM CDT 8:48 PM CDT
Moon 8:32 PM CDT 7:24 AM CDT
Length of Visible Light 12h 57m
Length of Day
12h 00m
Full, 99% of the Moon is Illuminated
Mar 17
Full
Mar 23
Last Quarter
Mar 30
New
Apr 7
First Quarter
Apr 15
Full

Hourly Weather History & Observations

Time (CDT) Temp. Windchill Dew Point Humidity Pressure Visibility Wind Dir Wind Speed Gust Speed Precip Events Conditions
12:15 AM 19.9 °F 12.1 °F 9.5 °F 64% 30.12 in 10.0 mi SSE 5.8 mph - N/A   Clear
12:35 AM 19.9 °F 13.4 °F 9.5 °F 64% 30.11 in 10.0 mi SSE 4.6 mph - N/A   Clear
1:15 AM 19.0 °F 13.9 °F 9.5 °F 66% 30.08 in 10.0 mi SSE 3.5 mph - N/A   Clear
1:35 AM 19.0 °F 11.1 °F 9.5 °F 66% 30.08 in 10.0 mi SSE 5.8 mph - N/A   Clear
1:55 AM 18.9 °F 8.8 °F 9.3 °F 66% 30.07 in 10.0 mi SSE 8.1 mph - N/A   Clear
2:15 AM 19.0 °F 9.0 °F 9.1 °F 65% 30.07 in 10.0 mi SSE 8.1 mph - N/A   Clear
2:35 AM 19.0 °F 12.3 °F 9.1 °F 65% 30.07 in 10.0 mi SSE 4.6 mph - N/A   Mostly Cloudy
2:55 AM 18.5 °F 11.7 °F 9.1 °F 67% 30.05 in 10.0 mi SSE 4.6 mph - N/A   Scattered Clouds
3:15 AM 18.5 °F 13.3 °F 9.1 °F 67% 30.03 in 10.0 mi SSE 3.5 mph - N/A   Mostly Cloudy
3:35 AM 18.9 °F 12.1 °F 9.3 °F 66% 30.02 in 10.0 mi SSE 4.6 mph - N/A   Overcast
3:55 AM 18.9 °F 10.8 °F 9.3 °F 66% 30.01 in 10.0 mi SSE 5.8 mph - N/A   Overcast
4:15 AM 18.9 °F 8.8 °F 8.6 °F 64% 29.99 in 10.0 mi SSE 8.1 mph - N/A   Overcast
4:55 AM 18.7 °F 7.8 °F 7.9 °F 63% 29.97 in 10.0 mi SSE 9.2 mph - N/A   Overcast
5:15 AM 18.9 °F 8.8 °F 6.6 °F 59% 29.97 in 10.0 mi South 8.1 mph - N/A   Overcast
5:35 AM 18.7 °F 7.8 °F 6.6 °F 59% 29.95 in 10.0 mi SSE 9.2 mph - N/A   Overcast
5:55 AM 18.5 °F 8.4 °F 7.5 °F 62% 29.95 in 10.0 mi South 8.1 mph - N/A   Overcast
6:15 AM 18.9 °F 8.0 °F 8.4 °F 64% 29.95 in 10.0 mi SSE 9.2 mph - N/A   Overcast
6:35 AM 18.9 °F 8.0 °F 8.8 °F 65% 29.95 in 10.0 mi South 9.2 mph - N/A   Overcast
6:55 AM 19.0 °F 8.2 °F 9.3 °F 66% 29.94 in 10.0 mi South 9.2 mph - N/A   Overcast
7:15 AM 19.0 °F 8.2 °F 9.5 °F 66% 29.93 in 10.0 mi South 9.2 mph - N/A   Overcast
7:35 AM 19.2 °F 8.4 °F 10.0 °F 67% 29.93 in 10.0 mi South 9.2 mph - N/A   Overcast
7:55 AM 19.6 °F 8.1 °F 10.2 °F 67% 29.92 in 10.0 mi SSE 10.4 mph - N/A   Overcast
8:15 AM 19.9 °F 10.1 °F 10.6 °F 67% 29.92 in 10.0 mi SSE 8.1 mph 16.1 mph N/A   Overcast
8:35 AM 20.3 °F 9.0 °F 10.9 °F 67% 29.90 in 10.0 mi SSE 10.4 mph - N/A   Overcast
8:55 AM 20.3 °F 7.7 °F 10.9 °F 67% 29.88 in 10.0 mi SSE 12.7 mph 16.1 mph N/A   Overcast
9:15 AM 20.7 °F 8.8 °F 10.8 °F 66% 29.86 in 10.0 mi South 11.5 mph - N/A   Overcast
9:35 AM 21.2 °F 8.9 °F 11.1 °F 65% 29.86 in 10.0 mi South 12.7 mph 19.6 mph N/A   Overcast
9:55 AM 21.4 °F 10.4 °F 10.9 °F 64% 29.86 in 10.0 mi South 10.4 mph 18.4 mph N/A   Overcast
10:15 AM 21.9 °F 11.0 °F 11.5 °F 64% 29.85 in 10.0 mi South 10.4 mph - N/A   Overcast
10:35 AM 22.6 °F 11.9 °F 11.7 °F 63% 29.83 in 10.0 mi SSE 10.4 mph 17.3 mph N/A   Overcast
10:55 AM 23.9 °F 13.5 °F 12.2 °F 61% 29.82 in 10.0 mi SSE 10.4 mph - N/A   Overcast
11:15 AM 24.1 °F 14.4 °F 11.7 °F 59% 29.82 in 10.0 mi SSE 9.2 mph - N/A   Overcast
11:35 AM 25.9 °F 13.8 °F 12.0 °F 56% 29.80 in 10.0 mi SSE 15.0 mph 18.4 mph N/A   Overcast
11:55 AM 26.4 °F 15.5 °F 12.2 °F 55% 29.79 in 10.0 mi SSE 12.7 mph 18.4 mph N/A   Mostly Cloudy
12:15 PM 27.5 °F 17.4 °F 13.1 °F 55% 29.78 in 10.0 mi SSE 11.5 mph - N/A   Mostly Cloudy
12:40 PM 29.1 °F 20.0 °F 12.7 °F 50% 29.77 in 10.0 mi SSE 10.4 mph - N/A   Overcast
12:55 PM 28.8 °F 19.0 °F 12.7 °F 51% 29.76 in 10.0 mi South 11.5 mph 17.3 mph N/A   Overcast
1:15 PM 28.2 °F 18.9 °F 12.9 °F 53% 29.75 in 10.0 mi SSE 10.4 mph - N/A   Overcast
1:35 PM 28.8 °F 17.9 °F 13.3 °F 52% 29.74 in 10.0 mi SSE 13.8 mph 17.3 mph N/A   Overcast
1:55 PM 30.0 °F 21.7 °F 13.5 °F 50% 29.74 in 10.0 mi SSE 9.2 mph - N/A   Overcast
2:36 PM 32.0 °F 24.8 °F 12.2 °F 44% 29.73 in 10.0 mi South 8.1 mph - N/A   Overcast
2:56 PM 32.0 °F 24.8 °F 14.0 °F 48% 29.73 in 10.0 mi South 8.1 mph - N/A   Overcast
3:15 PM 32.9 °F 24.1 °F 14.5 °F 47% 29.70 in 10.0 mi SSE 11.5 mph - N/A   Mostly Cloudy
3:16 PM 33.8 °F 25.3 °F 14.0 °F 44% 29.70 in 10.0 mi SSE 11.5 mph - N/A   Mostly Cloudy
3:35 PM 34.2 °F 26.8 °F 14.9 °F 45% 29.70 in 10.0 mi SSE 9.2 mph 18.4 mph N/A   Mostly Cloudy
3:55 PM 35.2 °F 26.6 °F 15.8 °F 45% 29.68 in 10.0 mi SE 12.7 mph 17.3 mph N/A   Scattered Clouds
4:10 PM 35.6 °F 28.0 °F 15.3 °F 43% 29.68 in 10.0 mi SSE 10.4 mph 16.1 mph N/A   Clear
4:30 PM 35.1 °F 27.9 °F 15.4 °F 45% 29.68 in 10.0 mi South 9.2 mph - N/A   Scattered Clouds
4:50 PM 36.5 °F 29.7 °F 15.4 °F 42% 29.67 in 10.0 mi SSE 9.2 mph - N/A   Clear
5:18 PM 37.4 °F 30.8 °F 15.8 °F 41% 29.67 in 10.0 mi South 9.2 mph - N/A   Scattered Clouds
5:35 PM 36.5 °F 33.9 °F 15.8 °F 43% 29.67 in 10.0 mi SSE 3.5 mph - N/A   Scattered Clouds
5:55 PM 37.0 °F 32.4 °F 15.6 °F 42% 29.68 in 10.0 mi SSW 5.8 mph - N/A   Clear
6:15 PM 36.1 °F 31.4 °F 15.8 °F 44% 29.69 in 10.0 mi South 5.8 mph - N/A   Clear
6:35 PM 35.4 °F 32.6 °F 16.5 °F 46% 29.69 in 10.0 mi SSE 3.5 mph - N/A   Clear
6:55 PM 33.8 °F 29.6 °F 17.1 °F 50% 29.70 in 10.0 mi SE 4.6 mph - N/A   Scattered Clouds
7:15 PM 33.3 °F 27.9 °F 17.6 °F 53% 29.70 in 10.0 mi SE 5.8 mph - N/A   Mostly Cloudy
7:35 PM 32.5 °F 28.1 °F 17.6 °F 54% 29.70 in 10.0 mi ESE 4.6 mph - N/A   Scattered Clouds
7:55 PM 32.0 °F 27.5 °F 17.6 °F 55% 29.70 in 10.0 mi ESE 4.6 mph - N/A   Scattered Clouds
8:15 PM 30.9 °F 26.2 °F 18.5 °F 60% 29.70 in 10.0 mi ESE 4.6 mph - N/A   Scattered Clouds
8:35 PM 30.7 °F 26.0 °F 17.6 °F 58% 29.72 in 10.0 mi SE 4.6 mph - N/A   Scattered Clouds
8:55 PM 30.7 °F 26.0 °F 17.2 °F 57% 29.72 in 10.0 mi SE 4.6 mph - N/A   Scattered Clouds
9:15 PM 30.7 °F 26.0 °F 16.5 °F 56% 29.72 in 10.0 mi ESE 4.6 mph - N/A   Clear
9:35 PM 28.8 °F 23.7 °F 17.8 °F 64% 29.73 in 10.0 mi ESE 4.6 mph - N/A   Clear
9:55 PM 29.3 °F 23.2 °F 16.7 °F 59% 29.73 in 10.0 mi SE 5.8 mph - N/A   Clear
10:15 PM 28.9 °F 23.9 °F 16.5 °F 60% 29.73 in 10.0 mi ESE 4.6 mph - N/A   Clear
10:35 PM 26.8 °F 20.2 °F 17.8 °F 69% 29.73 in 10.0 mi ESE 5.8 mph - N/A   Clear
10:55 PM 28.0 °F 21.7 °F 17.4 °F 64% 29.73 in 10.0 mi ESE 5.8 mph - N/A   Clear
11:15 PM 29.3 °F 24.3 °F 18.5 °F 64% 29.73 in 10.0 mi ESE 4.6 mph - N/A   Clear
11:35 PM 29.7 °F 23.7 °F 19.2 °F 65% 29.73 in 10.0 mi ESE 5.8 mph - N/A   Clear
11:55 PM 30.2 °F 24.3 °F 19.8 °F 65% 29.72 in 10.0 mi ESE 5.8 mph - N/A   Clear